ARIANE 5 DEB [SYLDA] (44336 NORAD) Tracking and Keplerian Element Data

This shows tracking and keplerian element data for the satellite.

Feedback or suggestion? Click here.




ElementValue
Catalog44336
NameARIANE 5 DEB [SYLDA]
Epoch Orbit66
Epoch Day200.90360072
Epoch Year2019
RAAN49.6135
Inclination6.0654
Eccentricity0.7271525
Argument of Perigee201.3843
Mean Anonmoly97.3158
Mean Motion2.28810377
Decay Rate5.13E-05
L11 44336U 19034D 19200.90360072 .00005130 00000-0 17777-2 0 9996
L22 44336 6.0654 49.6135 7271525 201.3843 97.3158 2.28810377 664

Live tracking and technical data element details for ARIANE 5 DEB [SYLDA] (NORAD 44336). ARIANE 5 DEB [SYLDA] can be tracked NOW for your location showing map with azimuth and elevation plus other details from your city location.

Track the satellite on the map from your city or location and see movement details for azimuth, elevation, latitude, longitude, range, height, and movement on the map or in text.







IsCatalogInMostPopularTable: catalog: 44336, numindb: 20
Update: records affected: 1



GetName: 44336 ARIANE 5 DEB [SYLDA]

Hit Count: updated at: Tue, 22 Oct 2019 23:30:39 GMT